GW3991 Weather Reports


Display with metric or nautical units.
time (UTC)temp
F
wind
direction
speed
MPH
gust
MPH
rain 1hr
in
rain 24hr
in
rain mn
in
humidity
%
barometer
mb
20260504220934 74 352 10.0 21.0 0.00 0.00 0.00 31 1003.8
20260504220430 75 355 10.0 19.0 0.00 0.00 0.00 30 1003.5
20260504215927 75 349 11.0 17.0 0.00 0.00 0.00 32 1003.5
20260504215424 76 351 8.0 16.0 0.00 0.00 0.00 31 1003.5
20260504214921 76 352 7.0 18.0 0.00 0.00 0.00 30 1003.2
20260504214417 76 349 14.0 18.0 0.00 0.00 0.00 29 1003.5
20260504213914 76 359 9.0 16.0 0.00 0.00 0.00 30 1003.1
20260504213410 77 345 10.0 13.0 0.00 0.00 0.00 29 1003.2
20260504212908 76 339 12.0 18.0 0.00 0.00 0.00 31 1003.2
20260504212403 76 348 11.0 12.0 0.00 0.00 0.00 30 1003.2
20260504211901 77 356 6.0 16.0 0.00 0.00 0.00 30 1003.2
20260504211357 77 356 7.0 13.0 0.00 0.00 0.00 30 1003.1
20260504210854 77 350 13.0 19.0 0.00 0.00 0.00 30 1003.1
20260504210346 77 354 9.0 13.0 0.00 0.00 0.00 30 1003.1
20260504205843 77 349 10.0 13.0 0.00 0.00 0.00 31 1003.1
20260504205341 77 346 8.0 19.0 0.00 0.00 0.00 32 1002.9
20260504204839 77 353 9.0 16.0 0.00 0.00 0.00 31 1003.1
20260504204337 77 345 14.0 16.0 0.00 0.00 0.00 32 1003.0
20260504203836 78 343 7.0 14.0 0.00 0.00 0.00 32 1003.0
20260504203333 76 356 9.0 17.0 0.00 0.00 0.00 34 1003.1
20260504202828 77 0 9.0 15.0 0.00 0.00 0.00 35 1003.0
20260504202326 77 349 14.0 16.0 0.00 0.00 0.00 34 1002.9
20260504201822 77 348 8.0 16.0 0.00 0.00 0.00 35 1002.7
20260504201320 78 344 13.0 15.0 0.00 0.00 0.00 34 1002.9
20260504200817 78 333 11.0 17.0 0.00 0.00 0.00 34 1003.0
20260504200314 78 349 8.0 16.0 0.00 0.00 0.00 36 1003.0
20260504195810 77 340 12.0 17.0 0.00 0.00 0.00 36 1003.0
20260504195306 77 345 7.0 13.0 0.00 0.00 0.00 37 1002.9
20260504194803 77 339 11.0 17.0 0.00 0.00 0.00 35 1002.9
20260504194259 77 348 11.0 20.0 0.00 0.00 0.00 36 1003.1
20260504193755 78 5 5.0 17.0 0.00 0.00 0.00 36 1002.8
20260504193253 78 341 10.0 15.0 0.00 0.00 0.00 37 1002.7
20260504192751 78 357 15.0 16.0 0.00 0.00 0.00 34 1002.5
20260504192249 77 352 7.0 19.0 0.00 0.00 0.00 34 1002.7
20260504191747 78 336 11.0 16.0 0.00 0.00 0.00 37 1002.7
20260504191244 78 319 19.0 24.0 0.00 0.00 0.00 33 1002.7
20260504190739 78 315 14.0 20.0 0.00 0.00 0.00 33 1002.4
20260504190236 79 341 10.0 20.0 0.00 0.00 0.00 33 1002.5
20260504185732 79 320 20.0 27.0 0.00 0.00 0.00 34 1002.3
20260504185229 79 342 11.0 19.0 0.00 0.00 0.00 31 1002.6
20260504184725 79 332 19.0 21.0 0.00 0.00 0.00 32 1002.2
20260504184221 79 326 18.0 29.0 0.00 0.00 0.00 32 1002.2
20260504183717 80 351 9.0 14.0 0.00 0.00 0.00 32 1002.1
20260504183215 79 340 11.0 23.0 0.00 0.00 0.00 33 1002.1
20260504182713 78 330 15.0 21.0 0.00 0.00 0.00 33 1002.1
20260504182210 79 311 22.0 24.0 0.00 0.00 0.00 32 1002.1
20260504181707 79 308 18.0 23.0 0.00 0.00 0.00 30 1002.2
20260504181204 79 329 9.0 13.0 0.00 0.00 0.00 30 1002.0
20260504180703 78 304 14.0 19.0 0.00 0.00 0.00 30 1002.1
20260504180202 78 304 11.0 24.0 0.00 0.00 0.00 31 1002.4
20260504175658 79 322 13.0 17.0 0.00 0.00 0.00 31 1002.5
20260504175155 79 322 15.0 18.0 0.00 0.00 0.00 31 1002.5
20260504174653 78 316 22.0 24.0 0.00 0.00 0.00 30 1002.4
20260504174150 78 309 13.0 18.0 0.00 0.00 0.00 31 1002.3
20260504173647 79 345 13.0 19.0 0.00 0.00 0.00 31 1002.5
20260504173144 78 323 11.0 21.0 0.00 0.00 0.00 36 1002.5
20260504172641 78 314 19.0 26.0 0.00 0.00 0.00 35 1002.4
20260504172137 79 317 14.0 18.0 0.00 0.00 0.00 31 1002.5
20260504171634 79 294 16.0 22.0 0.00 0.00 0.00 29 1002.6
20260504171131 79 313 15.0 19.0 0.00 0.00 0.00 30 1002.4
20260504170627 78 297 11.0 15.0 0.00 0.00 0.00 31 1002.4
20260504170125 78 312 15.0 19.0 0.00 0.00 0.00 35 1002.3
20260504151004 67 257 8.0 8.0 0.00 0.00 0.00 47 1003.0
20260504150502 67 250 7.0 9.0 0.00 0.00 0.00 48 1002.9
20260504140928 62 307 7.0 9.0 0.00 0.00 0.00 58 1003.3
20260504140424 62 328 4.0 6.0 0.00 0.00 0.00 57 1003.4
20260504130349 54 311 7.0 7.0 0.00 0.00 0.00 72 1003.3
20260504120312 51 125 2.0 2.0 0.00 0.00 0.00 80 1002.8
20260504110236 49 105 2.0 2.0 0.00 0.00 0.00 83 1002.9
20260504100154 51 2 1.0 3.0 0.00 0.00 0.00 81 1002.9
20260504090117 52 39 0.0 2.0 0.00 0.00 0.00 83 1003.5
20260504081552 52 83 1.0 2.0 0.00 0.00 0.00 80 1004.2
20260504081048 52 28 2.0 3.0 0.00 0.00 0.00 82 1004.5
20260504080545 53 77 1.0 2.0 0.00 0.00 0.00 82 1004.3
20260504050357 57 118 2.0 2.0 0.00 0.00 0.00 60 1007.2
20260504045855 58 102 0.0 2.0 0.00 0.00 0.00 62 1007.0
20260504045349 59 116 0.0 2.0 0.00 0.00 0.00 60 1007.0
20260504044847 59 144 2.0 3.0 0.00 0.00 0.00 62 1007.0
20260504044344 59 120 1.0 2.0 0.00 0.00 0.00 60 1007.4
20260504043841 60 116 2.0 3.0 0.00 0.00 0.00 56 1007.3
20260504043338 60 131 1.0 3.0 0.00 0.00 0.00 62 1007.4
20260504042835 60 123 1.0 2.0 0.00 0.00 0.00 57 1007.3
20260504042331 60 122 1.0 2.0 0.00 0.00 0.00 56 1007.3
20260504041828 60 126 3.0 3.0 0.00 0.00 0.00 56 1007.5
20260504041324 61 133 2.0 4.0 0.00 0.00 0.00 61 1007.7
20260504040820 61 135 3.0 3.0 0.00 0.00 0.00 58 1007.7
20260504040318 61 137 2.0 3.0 0.00 0.00 0.00 56 1007.7
20260504035814 61 108 1.0 3.0 0.00 0.00 0.00 56 1007.9
20260504035311 60 119 1.0 2.0 0.00 0.00 0.00 61 1008.0
20260504034809 60 122 0.0 3.0 0.00 0.00 0.00 72 1007.7
20260504034306 60 43 0.0 1.0 0.00 0.00 0.00 74 1007.9
20260504033803 61 122 0.0 1.0 0.00 0.00 0.00 74 1008.1
20260504033301 61 157 0.0 2.0 0.00 0.00 0.00 76 1008.0
20260504032757 61 161 0.0 3.0 0.00 0.00 0.00 75 1008.1
20260504032254 62 175 1.0 2.0 0.00 0.00 0.00 78 1008.0
20260504031751 62 123 2.0 3.0 0.00 0.00 0.00 68 1008.1
20260504031249 62 126 2.0 2.0 0.00 0.00 0.00 68 1008.2
20260504030744 62 101 1.0 3.0 0.00 0.00 0.00 68 1008.0
20260504030242 62 100 2.0 4.0 0.00 0.00 0.00 72 1008.0
20260504025738 62 104 2.0 3.0 0.00 0.00 0.00 71 1008.2
20260504025235 62 140 2.0 3.0 0.00 0.00 0.00 66 1008.2
20260504024732 62 89 0.0 2.0 0.00 0.00 0.00 64 1008.1
20260504024228 63 120 0.0 3.0 0.00 0.00 0.00 62 1008.2
20260504023725 62 120 2.0 3.0 0.00 0.00 0.00 65 1008.0
20260504023221 63 87 2.0 2.0 0.00 0.00 0.00 62 1008.2
20260504022717 63 110 0.0 2.0 0.00 0.00 0.00 60 1008.4
20260504022214 64 87 2.0 2.0 0.00 0.00 0.00 55 1008.3
20260504021712 64 122 1.0 2.0 0.00 0.00 0.00 56 1008.4
20260504021208 64 111 2.0 2.0 0.00 0.00 0.00 59 1008.3
20260504020705 64 86 2.0 3.0 0.00 0.00 0.00 62 1008.4
20260504020201 65 91 2.0 3.0 0.00 0.00 0.00 52 1008.4
20260504015658 66 108 3.0 4.0 0.00 0.00 0.00 44 1008.5
20260504015154 66 108 2.0 3.0 0.00 0.00 0.00 47 1008.5
20260504014650 66 113 1.0 2.0 0.00 0.00 0.00 42 1008.5
20260504014147 67 121 1.0 2.0 0.00 0.00 0.00 42 1008.5
20260504013645 68 139 1.0 2.0 0.00 0.00 0.00 43 1008.5
20260504013141 69 146 1.0 2.0 0.00 0.00 0.00 41 1008.4
20260504012639 69 202 0.0 3.0 0.00 0.00 0.00 37 1008.3
20260504012131 69 198 2.0 3.0 0.00 0.00 0.00 37 1008.6
20260504011627 69 169 1.0 2.0 0.00 0.00 0.00 41 1008.5
20260504011124 70 199 1.0 2.0 0.00 0.00 0.00 37 1008.6
20260504010620 70 209 2.0 3.0 0.00 0.00 0.00 37 1008.8
20260504010116 70 176 1.0 3.0 0.00 0.00 0.00 43 1008.7
20260504005613 71 195 2.0 3.0 0.00 0.00 0.00 35 1008.7
20260504005110 72 198 2.0 3.0 0.00 0.00 0.00 36 1008.9
20260504004608 73 212 1.0 1.0 0.00 0.00 0.00 34 1008.8
20260504004105 73 232 1.0 1.0 0.00 0.00 0.00 33 1008.9
20260504003600 73 282 1.0 2.0 0.00 0.00 0.00 32 1008.9
20260504003057 73 243 3.0 5.0 0.00 0.00 0.00 32 1008.9
20260504002554 73 236 3.0 3.0 0.00 0.00 0.00 32 1008.9
20260504002052 74 229 2.0 4.0 0.00 0.00 0.00 32 1009.0
20260504001549 74 210 2.0 4.0 0.00 0.00 0.00 33 1009.2
20260504001045 74 245 3.0 7.0 0.00 0.00 0.00 32 1009.3
20260504000543 74 254 5.0 6.0 0.00 0.00 0.00 31 1009.1
20260504000040 74 292 3.0 7.0 0.00 0.00 0.00 30 1009.3
20260503235538 74 225 7.0 8.0 0.00 0.00 0.00 31 1009.4
20260503235035 74 197 2.0 3.0 0.00 0.00 0.00 36 1009.4
20260503234532 74 163 1.0 4.0 0.00 0.00 0.00 33 1009.3
20260503234031 74 179 4.0 5.0 0.00 0.00 0.00 34 1009.2
20260503233526 74 216 4.0 6.0 0.00 0.00 0.00 32 1009.3
20260503233023 73 248 3.0 5.0 0.00 0.00 0.00 34 1009.3
20260503232520 74 205 6.0 9.0 0.00 0.00 0.00 31 1009.4
20260503232017 74 221 3.0 7.0 0.00 0.00 0.00 31 1009.5
20260503231515 73 230 3.0 7.0 0.00 0.00 0.00 32 1009.4
20260503231012 74 159 3.0 6.0 0.00 0.00 0.00 32 1009.3
20260503230508 74 194 2.0 6.0 0.00 0.00 0.00 30 1009.5
20260503230006 74 227 0.0 2.0 0.00 0.00 0.00 31 1009.5
20260503225503 73 149 3.0 4.0 0.00 0.00 0.00 34 1009.6
20260503224958 74 115 0.0 2.0 0.00 0.00 0.00 31 1009.8
20260503224455 74 214 2.0 5.0 0.00 0.00 0.00 31 1009.7
20260503223953 73 255 4.0 4.0 0.00 0.00 0.00 32 1009.8
20260503223451 73 141 2.0 4.0 0.00 0.00 0.00 32 1009.6
20260503222946 73 213 2.0 2.0 0.00 0.00 0.00 31 1009.7
20260503222445 72 240 2.0 5.0 0.00 0.00 0.00 32 1009.5
20260503221942 72 313 9.0 9.0 0.00 0.00 0.00 33 1009.5
20260503221440 73 349 4.0 7.0 0.00 0.00 0.00 31 1009.6